Weather History for Meadow Lake, CO

Change the Weather History Date:

Saturday, May 4, 2013

  Actual Average (KCOS) Record (KCOS)
Temperature  
Mean Temperature 44 °F 52 °F  
Max Temperature 61 °F 66 °F 86 °F (2012)
Min Temperature 29 °F 39 °F 24 °F (1935)
Degree Days  
Heating Degree Days 20 13  
Month to date heating degree days 53  
Since 1 July heating degree days 5975  
Cooling Degree Days 0 0  
Month to date cooling degree days 0  
Year to date cooling degree days 1  
Moisture  
Dew Point 22 °F    
Average Humidity 45    
Maximum Humidity 74    
Minimum Humidity 20    
Precipitation  
Precipitation 0.00 in 0.06 in 1.23 in (1902)
Month to date precipitation 0.22  
Year to date precipitation 3.30  
Snow  
Snow 0.00 in 0.10 in 2.70 in (1898)
Month to date snowfall 0.3  
Since 1 July snowfall 37.3  
Snow Depth -    
Sea Level Pressure  
Sea Level Pressure 30.17 in    
Wind  
Wind Speed 5 mph (NE)    
Max Wind Speed 16 mph    
Max Gust Speed 21 mph    
Visibility 10 miles    
Events      
T = Trace of Precipitation, MM = Missing Value Source: NWS Daily Summary

Daily Weather History Graph

Daily Weather History Graph

Search for Another Location

Airport:

Trip Planner

Search our weather history database for the weather conditions in past years. The results will help you decide how hot, cold, wet, or windy it might be!

Date:

Astronomy

May. 04, 2013 Rise Set
Actual Time 5:56 AM MDT 7:54 PM MDT
Civil Twilight 5:27 AM MDT 8:23 PM MDT
Nautical Twilight 4:52 AM MDT 8:58 PM MDT
Astronomical Twilight 4:13 AM MDT 9:37 PM MDT
Moon 2:53 AM MDT (5/4) 2:57 PM MDT (5/4)
Length of Visible Light 14h 55m
Length of Day
13h 57m
Waning Crescent, 26% of the Moon is Illuminated
May 4
Waning Crescent
May 9
New
May 17
First Quarter
May 24
Full
May 31
Last Quarter

Hourly Weather History & Observations

Time (MDT) Temp. Windchill Dew Point Humidity Pressure Visibility Wind Dir Wind Speed Gust Speed Precip Events Conditions
12:11 AM 35.1 °F 32.2 °F 23.4 °F 62% 30.19 in 10.0 mi WNW 3.5 mph - N/A   Clear
12:31 AM 36.9 °F - 23.2 °F 58% 30.18 in 10.0 mi Calm Calm - N/A   Clear
12:51 AM 37.0 °F 33.3 °F 22.8 °F 56% 30.18 in 10.0 mi WNW 4.6 mph - N/A   Clear
1:11 AM 34.0 °F 29.8 °F 24.6 °F 69% 30.17 in 10.0 mi North 4.6 mph - N/A   Clear
1:31 AM 32.0 °F - 24.6 °F 74% 30.17 in 10.0 mi Calm Calm - N/A   Clear
1:51 AM 33.3 °F - 24.6 °F 71% 30.16 in 10.0 mi Calm Calm - N/A   Clear
2:11 AM 32.9 °F - 25.3 °F 74% 30.16 in 10.0 mi Calm Calm - N/A   Clear
2:31 AM 32.0 °F 28.7 °F 24.4 °F 74% 30.15 in 10.0 mi West 3.5 mph - N/A   Clear
2:51 AM 32.0 °F 28.7 °F 24.4 °F 74% 30.15 in 10.0 mi West 3.5 mph - N/A   Clear
3:11 AM 32.4 °F 26.9 °F 23.5 °F 70% 30.14 in 10.0 mi WSW 5.8 mph - N/A   Clear
3:31 AM 32.0 °F 27.5 °F 23.0 °F 69% 30.14 in 10.0 mi WSW 4.6 mph - N/A   Clear
3:51 AM 31.1 °F 25.4 °F 23.0 °F 72% 30.14 in 10.0 mi WNW 5.8 mph - N/A   Clear
4:11 AM 31.3 °F 25.6 °F 22.8 °F 71% 30.14 in 10.0 mi West 5.8 mph - N/A   Clear
4:31 AM 30.6 °F 24.7 °F 22.1 °F 71% 30.14 in 10.0 mi WNW 5.8 mph - N/A   Clear
4:51 AM 30.6 °F 23.8 °F 22.6 °F 72% 30.13 in 10.0 mi WNW 6.9 mph - N/A   Clear
5:11 AM 31.1 °F 25.4 °F 22.1 °F 69% 30.13 in 10.0 mi West 5.8 mph - N/A   Clear
5:31 AM 29.5 °F 22.5 °F 21.6 °F 72% 30.13 in 10.0 mi WNW 6.9 mph - N/A   Clear
5:51 AM 29.7 °F 22.0 °F 21.2 °F 71% 30.13 in 10.0 mi WNW 8.1 mph - N/A   Clear
6:11 AM 31.8 °F 25.4 °F 22.1 °F 67% 30.13 in 10.0 mi West 6.9 mph - N/A   Clear
6:31 AM 33.3 °F - 22.3 °F 64% 30.13 in 10.0 mi Calm Calm - N/A   Clear
6:51 AM 35.2 °F - 24.4 °F 65% 30.13 in 10.0 mi Calm Calm - N/A   Clear
7:11 AM 38.5 °F 36.1 °F 23.7 °F 55% 30.15 in 10.0 mi NW 3.5 mph - N/A   Clear
7:31 AM 40.1 °F 38.0 °F 23.7 °F 52% 30.15 in 10.0 mi SSW 3.5 mph - N/A   Clear
7:51 AM 41.7 °F - 22.6 °F 47% 30.15 in 10.0 mi Calm Calm - N/A   Clear
8:11 AM 44.6 °F 43.1 °F 22.8 °F 42% 30.16 in 10.0 mi NNW 3.5 mph - N/A   Clear
8:31 AM 47.1 °F - 23.5 °F 40% 30.16 in 10.0 mi ENE 4.6 mph - N/A   Clear
8:51 AM 49.3 °F - 19.4 °F 31% 30.16 in 10.0 mi ENE 9.2 mph - N/A   Clear
9:11 AM 49.8 °F - 18.5 °F 29% 30.16 in 10.0 mi East 9.2 mph 17.3 mph N/A   Clear
9:31 AM 50.0 °F - 17.6 °F 28% 30.16 in 10.0 mi East 5.8 mph - N/A   Clear
9:51 AM 51.1 °F - 17.8 °F 27% 30.16 in 10.0 mi ESE 8.1 mph - N/A   Clear
10:11 AM 51.8 °F - 17.4 °F 26% 30.17 in 10.0 mi East 9.2 mph - N/A   Clear
10:31 AM 52.5 °F - 17.4 °F 25% 30.17 in 10.0 mi ESE 9.2 mph - N/A   Clear
10:51 AM 53.6 °F - 19.0 °F 26% 30.17 in 10.0 mi East 6.9 mph - N/A   Clear
11:11 AM 53.6 °F - 20.3 °F 27% 30.17 in 10.0 mi SW 4.6 mph - N/A   Clear
11:31 AM 53.6 °F - 19.6 °F 26% 30.18 in 10.0 mi ESE 9.2 mph - N/A   Clear
11:51 AM 55.4 °F - 20.8 °F 26% 30.17 in 10.0 mi ESE 10.4 mph 20.7 mph N/A   Clear
12:11 PM 55.4 °F - 20.3 °F 25% 30.16 in 10.0 mi East 9.2 mph - N/A   Scattered Clouds
12:31 PM 56.5 °F - 20.7 °F 25% 30.16 in 10.0 mi South 4.6 mph 18.4 mph N/A   Scattered Clouds
12:51 PM 52.9 °F - 20.7 °F 28% 30.16 in 10.0 mi East 6.9 mph - N/A   Mostly Cloudy
1:11 PM 57.2 °F - 20.7 °F 24% 30.16 in 10.0 mi ESE 8.1 mph - N/A   Mostly Cloudy
1:31 PM 59.0 °F - 20.7 °F 23% 30.16 in 10.0 mi SSE 11.5 mph 18.4 mph N/A   Mostly Cloudy
1:51 PM 58.6 °F - 19.6 °F 22% 30.15 in 10.0 mi West 4.6 mph - N/A   Mostly Cloudy
2:11 PM 58.5 °F - 19.8 °F 22% 30.15 in 10.0 mi SSW 6.9 mph 16.1 mph N/A   Scattered Clouds
2:31 PM 58.3 °F - 19.4 °F 22% 30.14 in 10.0 mi ENE 6.9 mph - N/A   Scattered Clouds
2:51 PM 58.3 °F - 19.0 °F 22% 30.15 in 10.0 mi ENE 8.1 mph - N/A   Mostly Cloudy
3:11 PM 60.8 °F - 19.8 °F 21% 30.14 in 10.0 mi South 9.2 mph - N/A   Mostly Cloudy
3:31 PM 60.6 °F - 19.6 °F 20% 30.14 in 10.0 mi ESE 9.2 mph - N/A   Mostly Cloudy
3:51 PM 54.5 °F - 19.6 °F 26% 30.14 in 10.0 mi ESE 3.5 mph 18.4 mph N/A   Clear
4:11 PM 55.9 °F - 19.8 °F 24% 30.14 in 10.0 mi ENE 8.1 mph - N/A   Scattered Clouds
4:31 PM 58.8 °F - 19.6 °F 22% 30.14 in 10.0 mi SSE 4.6 mph 17.3 mph N/A   Mostly Cloudy
4:51 PM 54.5 °F - 21.4 °F 28% 30.14 in 10.0 mi East 4.6 mph - N/A   Mostly Cloudy
5:11 PM 55.8 °F - 22.1 °F 27% 30.15 in 10.0 mi ENE 10.4 mph - N/A   Scattered Clouds
5:31 PM 56.1 °F - 23.9 °F 29% 30.15 in 10.0 mi ENE 12.7 mph 19.6 mph N/A   Scattered Clouds
5:51 PM 52.9 °F - 23.5 °F 32% 30.16 in 10.0 mi ENE 16.1 mph 19.6 mph N/A   Mostly Cloudy
6:11 PM 52.2 °F - 23.7 °F 33% 30.17 in 10.0 mi ENE 12.7 mph 17.3 mph N/A   Overcast
6:31 PM 50.4 °F - 23.4 °F 35% 30.18 in 10.0 mi ENE 12.7 mph 18.4 mph N/A   Mostly Cloudy
6:51 PM 49.1 °F - 23.4 °F 36% 30.18 in 10.0 mi ENE 15.0 mph - N/A   Clear
7:11 PM 47.3 °F - 23.7 °F 40% 30.18 in 10.0 mi NE 12.7 mph - N/A   Clear
7:31 PM 45.7 °F 41.0 °F 23.9 °F 42% 30.20 in 10.0 mi NE 9.2 mph - N/A   Clear
7:51 PM 43.9 °F 37.9 °F 24.3 °F 46% 30.20 in 10.0 mi NE 11.5 mph - N/A   Clear
8:11 PM 42.6 °F 36.3 °F 23.9 °F 48% 30.21 in 10.0 mi NE 11.5 mph - N/A   Clear
8:31 PM 41.2 °F 35.5 °F 23.9 °F 50% 30.21 in 10.0 mi NE 9.2 mph - N/A   Clear
8:51 PM 40.3 °F 36.3 °F 23.7 °F 52% 30.23 in 10.0 mi NNE 5.8 mph - N/A   Scattered Clouds
9:11 PM 39.2 °F 34.2 °F 23.4 °F 53% 30.24 in 10.0 mi NNE 6.9 mph - N/A   Scattered Clouds
9:31 PM 38.7 °F 34.3 °F 23.0 °F 53% 30.25 in 10.0 mi NNE 5.8 mph - N/A   Clear
9:51 PM 39.0 °F 34.8 °F 21.9 °F 50% 30.26 in 10.0 mi NNE 5.8 mph - N/A   Clear
10:11 PM 37.8 °F 34.2 °F 22.1 °F 53% 30.26 in 10.0 mi NNE 4.6 mph - N/A   Clear
10:31 PM 37.9 °F 33.5 °F 22.1 °F 53% 30.26 in 10.0 mi NNE 5.8 mph - N/A   Clear
10:51 PM 37.9 °F 35.5 °F 22.1 °F 53% 30.27 in 10.0 mi North 3.5 mph - N/A   Clear
11:11 PM 37.6 °F 35.1 °F 22.3 °F 54% 30.27 in 10.0 mi North 3.5 mph - N/A   Clear
11:31 PM 37.0 °F 34.5 °F 21.7 °F 54% 30.26 in 10.0 mi ENE 3.5 mph - N/A   Clear
11:51 PM 36.1 °F - 21.7 °F 56% 30.26 in 10.0 mi Calm Calm - N/A   Clear